Estació meteorològica de Els Cortals - St. Hilari Sacalm (La Selva, Guilleries)

Consulta les dades en temps real de l'estació meteorològica de Els Cortals - St. Hilari Sacalm





Hora UTC 14:15
Temperatura 29.7 ºC
Humitat 46.0 %
Pressió 1014.3 hPa
Pluja 0.0 mm
Velocitat vent 0.0 km/h
Direcció vent E

Dades diàries 2026-09-05



Hora UTC (hivern +1h; estiu +2h)
Temperatura (ºC) Humitat (%) Pressió (hPa) Velocitat vent (km/h) Precipitació (mm)
Hora UTC Aire Humitat Pressió Vel. Dir. Vel. Max Dir. Intent. màx 5 min.
00:05 24.4 63.0 1013.4 0.0 WNW 0.0 0.0
00:10 23.9 64.0 1013.5 0.0 WNW 0.0 0.0
00:15 23.8 66.0 1013.5 0.0 W 0.0 0.0
00:20 23.8 66.0 1013.5 0.0 W 0.0 0.0
00:25 24.0 68.0 1013.3 0.0 W 0.0 0.0
00:30 24.1 68.0 1013.4 0.0 WNW 0.0 0.0
00:35 24.1 68.0 1013.4 0.0 W 0.0 0.0
00:40 23.9 68.0 1013.4 0.0 W 0.0 0.0
00:45 23.7 69.0 1013.3 0.0 W 0.0 0.0
00:50 23.6 70.0 1013.4 0.0 W 0.0 0.0
00:55 23.5 70.0 1013.3 0.0 NW 0.0 0.0
01:00 23.3 70.0 1013.4 0.0 WNW 0.0 0.0
01:05 23.2 70.0 1013.3 0.0 W 0.0 0.0
01:10 23.2 70.0 1013.4 0.0 W 0.0 0.0
01:15 23.1 71.0 1013.4 0.0 W 0.0 0.0
01:20 22.9 71.0 1013.3 0.0 W 0.0 0.0
01:25 22.7 72.0 1013.3 0.0 W 0.0 0.0
01:30 22.5 73.0 1013.3 0.0 W 0.0 0.0
01:35 22.3 73.0 1013.3 0.0 W 0.0 0.0
01:40 22.1 74.0 1013.3 0.0 W 0.0 0.0
01:45 22.0 74.0 1013.4 0.0 W 0.0 0.0
01:50 21.8 73.0 1013.4 0.0 W 0.0 0.0
01:55 22.0 73.0 1013.5 0.0 W 0.0 0.0
02:00 22.2 73.0 1013.5 0.0 W 0.0 0.0
02:05 22.6 72.0 1013.6 0.0 W 0.0 0.0
02:10 22.8 71.0 1013.6 0.0 W 0.0 0.0
02:15 22.9 71.0 1013.5 0.0 W 0.0 0.0
02:20 22.9 71.0 1013.4 0.0 W 0.0 0.0
02:25 23.0 70.0 1013.5 0.0 W 0.0 0.0
02:30 22.9 70.0 1013.4 0.0 W 0.0 0.0
02:35 22.6 71.0 1013.3 0.0 W 0.0 0.0
02:40 22.3 71.0 1013.4 0.0 W 0.0 0.0
02:45 22.0 72.0 1013.4 0.0 W 0.0 0.0
02:50 22.0 71.0 1013.5 0.0 W 0.0 0.0
02:55 22.2 70.0 1013.5 0.0 W 0.0 0.0
03:00 22.4 67.0 1013.5 0.0 WSW 0.0 0.0
03:05 22.7 64.0 1013.4 0.0 WSW 0.0 0.0
03:10 23.0 62.0 1013.4 0.0 WSW 0.0 0.0
03:15 23.2 61.0 1013.4 0.0 WSW 0.0 0.0
03:20 23.2 60.0 1013.5 0.0 WSW 0.0 0.0
03:25 23.2 58.0 1013.5 0.0 WSW 0.0 0.0
03:30 23.3 57.0 1013.4 0.0 WSW 0.0 0.0
03:35 23.3 57.0 1013.4 0.0 WSW 0.0 0.0
03:40 23.3 56.0 1013.5 0.0 WSW 0.0 0.0
03:45 23.3 55.0 1013.5 0.0 WSW 0.0 0.0
03:50 23.4 56.0 1013.5 0.0 WSW 0.0 0.0
03:55 23.4 56.0 1013.5 0.0 WSW 0.0 0.0
04:00 23.4 56.0 1013.4 0.0 WSW 0.0 0.0
04:05 23.4 56.0 1013.4 0.0 WSW 0.0 0.0
04:10 23.4 56.0 1013.4 0.0 WSW 0.0 0.0
04:15 23.3 56.0 1013.3 0.0 WSW 0.0 0.0
04:20 23.1 57.0 1013.3 0.0 WSW 0.0 0.0
04:25 22.9 57.0 1013.3 0.0 WSW 0.0 0.0
04:30 22.7 58.0 1013.4 0.0 WSW 0.0 0.0
04:35 22.5 59.0 1013.4 0.0 WSW 0.0 0.0
04:40 22.4 59.0 1013.6 0.0 WSW 0.0 0.0
04:45 22.4 59.0 1013.5 0.0 WSW 0.0 0.0
04:50 22.6 58.0 1013.5 0.0 WSW 0.0 0.0
04:55 22.7 57.0 1013.5 0.0 WSW 0.0 0.0
05:00 22.4 57.0 1013.5 0.0 WSW 0.0 0.0
05:05 22.2 58.0 1013.6 0.0 WSW 0.0 0.0
05:10 22.2 56.0 1013.7 0.0 WSW 0.0 0.0
05:15 22.3 56.0 1013.7 0.0 WSW 0.0 0.0
05:20 22.5 55.0 1013.9 0.0 WSW 0.0 0.0
05:25 22.6 54.0 1014.0 0.0 WSW 0.0 0.0
05:30 22.4 55.0 1014.0 0.0 WSW 0.0 0.0
05:35 22.1 56.0 1014.0 0.0 WSW 0.0 0.0
05:40 21.9 56.0 1014.1 0.0 WSW 0.0 0.0
05:45 22.1 56.0 1014.0 0.0 WSW 0.0 0.0
05:50 22.4 56.0 1014.0 0.0 WSW 0.0 0.0
05:55 22.7 55.0 1014.1 0.0 WSW 0.0 0.0
06:00 23.0 55.0 1014.1 0.0 WSW 0.0 0.0
06:05 23.1 55.0 1014.2 0.0 W 0.0 0.0
06:10 23.1 54.0 1014.1 0.0 W 0.0 0.0
06:15 23.3 54.0 1014.1 0.0 W 0.0 0.0
06:20 23.4 56.0 1014.2 0.0 W 0.0 0.0
06:25 23.6 55.0 1014.2 0.0 W 0.0 0.0
06:30 23.8 56.0 1014.3 0.0 W 0.0 0.0
06:35 23.9 55.0 1014.3 0.0 W 0.0 0.0
06:40 24.2 55.0 1014.3 0.0 W 0.0 0.0
06:45 24.5 54.0 1014.3 0.0 WNW 0.0 0.0
06:50 24.8 52.0 1014.2 0.0 WNW 0.0 0.0
06:55 25.4 49.0 1014.5 0.0 SSW 0.0 0.0
07:00 25.9 48.0 1014.3 0.0 SSE 0.0 0.0
07:05 26.6 45.0 1014.4 0.0 SSE 0.0 0.0
07:10 26.9 44.0 1014.6 0.0 S 0.0 0.0
07:15 27.2 44.0 1014.7 0.0 SE 0.0 0.0
07:20 27.3 44.0 1014.5 0.0 SSE 0.0 0.0
07:25 27.6 44.0 1014.7 0.0 SE 0.0 0.0
07:30 27.7 43.0 1014.5 0.0 S 0.0 0.0
07:35 27.7 43.0 1014.6 0.0 ENE 0.0 0.0
07:40 27.6 43.0 1014.6 0.0 SE 0.0 0.0
07:45 27.7 43.0 1014.8 0.0 ESE 0.0 0.0
07:50 27.8 43.0 1014.6 0.0 S 0.0 0.0
07:55 28.0 43.0 1014.8 0.0 ESE 0.0 0.0
08:00 28.1 42.0 1014.7 0.0 SSE 0.0 0.0
08:05 28.1 43.0 1014.7 0.0 ENE 0.0 0.0
08:10 28.2 44.0 1014.8 0.0 SSE 0.0 0.0
08:15 28.1 43.0 1014.6 0.0 S 0.0 0.0
08:20 28.1 43.0 1014.8 0.0 SE 0.0 0.0
08:25 28.2 43.0 1014.9 0.0 SSE 0.0 0.0
08:30 28.3 43.0 1014.9 0.0 E 0.0 0.0
08:35 28.2 43.0 1014.9 0.0 ESE 0.0 0.0
08:40 28.3 44.0 1015.1 0.0 S 0.0 0.0
08:45 28.4 43.0 1014.9 0.0 SW 0.0 0.0
08:50 28.3 43.0 1014.9 0.0 E 0.0 0.0
08:55 28.3 44.0 1015.1 0.0 ENE 0.0 0.0
09:00 28.5 43.0 1015.1 0.0 SSE 0.0 0.0
09:05 28.7 44.0 1015.2 0.0 S 0.0 0.0
09:10 28.8 43.0 1015.2 0.0 SE 0.0 0.0
09:15 28.9 42.0 1015.2 0.0 SSW 0.0 0.0
09:20 29.1 43.0 1015.3 0.0 S 0.0 0.0
09:25 29.1 43.0 1015.2 0.0 SSE 0.0 0.0
09:30 28.9 42.0 1015.4 0.0 SSE 0.0 0.0
09:35 28.7 43.0 1015.3 0.0 SSW 0.0 0.0
09:40 28.7 44.0 1015.3 0.0 E 0.0 0.0
09:45 28.4 44.0 1015.3 0.0 E 0.0 0.0
09:50 28.7 43.0 1015.4 0.0 E 0.0 0.0
09:55 28.9 43.0 1015.3 0.0 NE 0.0 0.0
10:00 29.1 43.0 1015.2 0.0 SE 0.0 0.0
10:05 29.3 43.0 1015.2 0.0 SSE 0.0 0.0
10:10 29.4 43.0 1015.3 0.0 E 0.0 0.0
10:15 29.3 43.0 1015.2 0.0 E 0.0 0.0
10:20 29.3 43.0 1015.3 0.0 E 0.0 0.0
10:25 29.4 43.0 1015.3 0.0 SW 0.0 0.0
10:30 29.4 43.0 1015.3 0.0 SSE 0.0 0.0
10:35 29.5 44.0 1015.2 0.0 ENE 0.0 0.0
10:40 29.6 44.0 1015.3 0.0 SSE 0.0 0.0
10:45 29.6 43.0 1015.1 0.0 E 0.0 0.0
10:50 29.7 43.0 1015.1 0.0 E 0.0 0.0
10:55 29.7 44.0 1015.3 0.0 SE 0.0 0.0
11:00 29.7 44.0 1015.2 0.0 E 0.0 0.0
11:05 29.9 44.0 1015.1 0.0 E 0.0 0.0
11:10 30.1 43.0 1015.1 0.0 ESE 0.0 0.0
11:15 30.2 43.0 1015.1 0.0 E 0.0 0.0
11:20 30.2 43.0 1015.1 0.0 ENE 0.0 0.0
11:25 30.1 43.0 1015.2 0.0 SSW 0.0 0.0
11:30 30.1 43.0 1015.1 0.0 ENE 0.0 0.0
11:35 30.1 43.0 1015.0 0.0 ENE 0.0 0.0
11:40 30.2 43.0 1015.0 0.0 ENE 0.0 0.0
11:45 30.1 43.0 1015.1 0.0 ESE 0.0 0.0
11:50 30.2 43.0 1015.1 0.0 E 0.0 0.0
11:55 30.2 43.0 1015.1 0.0 SSE 0.0 0.0
12:00 30.1 43.0 1015.1 0.0 ENE 0.0 0.0
12:05 30.0 43.0 1014.9 0.0 E 0.0 0.0
12:10 30.1 43.0 1015.0 0.0 E 0.0 0.0
12:15 30.1 44.0 1014.9 0.0 NE 0.0 0.0
12:20 30.3 43.0 1014.9 0.0 S 0.0 0.0
12:25 30.3 42.0 1014.9 0.0 E 0.0 0.0
12:30 30.2 42.0 1014.9 0.0 NE 0.0 0.0
12:35 30.3 43.0 1014.8 0.0 SE 0.0 0.0
12:40 30.6 42.0 1014.9 0.0 S 0.0 0.0
12:45 30.4 42.0 1014.8 0.0 ESE 0.0 0.0
12:50 30.3 42.0 1014.8 0.0 E 0.0 0.0
12:55 30.3 43.0 1014.7 0.0 NE 0.0 0.0
13:00 30.3 43.0 1014.6 0.0 E 0.0 0.0
13:05 30.3 43.0 1014.7 0.0 SE 0.0 0.0
13:10 30.3 43.0 1014.6 0.0 ESE 0.0 0.0
13:15 30.3 43.0 1014.6 0.0 NE 0.0 0.0
13:20 30.2 43.0 1014.6 0.0 E 0.0 0.0
13:25 30.1 43.0 1014.4 0.0 ENE 0.0 0.0
13:30 30.1 43.0 1014.5 0.0 SE 0.0 0.0
13:35 29.9 44.0 1014.4 0.0 ENE 0.0 0.0
13:40 30.1 44.0 1014.5 0.0 NNE 0.0 0.0
13:45 29.9 43.0 1014.3 0.0 ENE 0.0 0.0
13:50 29.7 44.0 1014.3 0.0 E 0.0 0.0
13:55 29.7 44.0 1014.5 0.0 SE 0.0 0.0
14:00 29.5 45.0 1014.3 0.0 ENE 0.0 0.0
14:05 29.6 45.0 1014.4 0.0 SE 0.0 0.0
14:10 29.6 45.0 1014.4 0.0 ESE 0.0 0.0
14:15 29.7 46.0 1014.3 0.0 E 0.0 0.0
Màxima 30.6 74.0 1015.4 0.0 E 0.0 0.0
Mínima 20 42.0 1013.3
Total 0.0